Location: Zilina
(0.0000°N, 18.7333°E)
Time: 09:51:14
(UTC+02:00)

Daily predictions for brighter satellites

Satellite Brightness Start Highest point End
(mag) Time Altitude Azimuth Time Altitude Azimuth Time Altitude Azimuth
ARIANE DEB (SYLDA) 3.9 18:41:29 10° WSW 18:46:11 76° SSE 19:11:20 10° E
Meteor 2-12 Rocket 4.5 18:43:32 10° N 18:49:40 75° E 18:55:46 10° S
YAOGAN 1 3.9 18:55:20 10° ESE 18:58:16 18° ENE 19:01:10 10° NE
Cosmos 1943 Rocket 3.7 18:59:35 10° SE 19:02:37 15° ESE 19:05:32 10° ENE
Fermi 3.7 19:05:07 10° WSW 19:09:14 76° SSE 19:12:41 14° ENE
Cosmos 468 Rocket 4.2 19:05:11 10° S 19:10:18 49° ESE 19:15:23 10° NNE
NOAA 12 4.1 19:07:01 10° SSE 19:12:17 90° W 19:17:32 10° NNW
Cosmos 968 Rocket 3.4 19:07:18 10° N 19:12:31 84° ENE 19:17:42 10° SSE
COSMOS 2406 4.4 19:10:22 10° NNE 19:14:20 19° ENE 19:18:18 10° ESE
Cosmos 1703 3.6 19:10:42 10° NNE 19:14:21 41° E 19:18:01 10° SSE
Star 48B 4.2 19:12:36 10° WSW 19:14:48 72° NNW 19:17:56 15° ENE
USA 234 3.2 19:08:48 10° NE 19:15:21 81° SE 19:21:53 10° SSW
GOES 2 Rocket 4.1 19:14:10 10° W 19:18:07 41° SSW 19:22:20 10° SE
Cosmos 2297 4.0 19:14:57 10° SSW 19:20:33 69° WNW 19:26:10 10° N
Cosmos 1354 Rocket 4.1 19:18:47 10° NNW 19:24:00 84° WSW 19:29:16 10° S
GPS 2-05 Rocket1 2.4 19:24:18 10° SW 19:27:02 53° SE 19:27:50 36° E
Cosmos 2208 Rocket 4.4 19:23:15 10° S 19:28:12 39° ESE 19:32:14 14° NE
Cosmos 841 Rocket 4.3 19:25:27 10° SSE 19:29:50 28° ESE 19:31:32 23° ENE
Atlas Centaur 2 2.5 19:24:15 10° NW 19:30:08 43° NNE 19:32:43 25° E
SAR-Lupe-2 4.0 19:29:43 22° NE 19:31:34 39° ESE 19:34:56 10° S
CSL-04 Rocket 3.7 19:30:08 10° SSE 19:35:37 60° ENE 19:41:03 10° N
Intelsat 5-3 Rocket 2.4 19:33:38 10° SW 19:36:20 52° SSE 19:38:01 31° E
ARIANE 5 R/B 1.8 19:34:39 10° WSW 19:36:26 43° S 19:36:44 39° SSE
Cosmos-2242 3.3 19:32:51 10° SSE 19:37:03 44° E 19:39:47 19° NNE
Meteor 1-11 4.2 19:32:45 10° N 19:38:31 70° E 19:44:17 10° SSE
Delta 202 3.7 19:36:38 10° WSW 19:42:25 62° SSE 19:44:45 32° E
Cosmos 1242 Rocket 4.1 19:43:15 10° NNW 19:46:38 37° W 19:49:59 10° SSW
NOAA 11 4.4 19:43:11 10° SSE 19:48:21 43° ENE 19:53:28 10° N
Cosmos 1777 Rocket 4.4 19:45:38 10° N 19:56:43 - SSE 19:49:51 37° ENE
Cosmos 1238 4.5 19:46:51 10° S 19:50:56 63° E 19:50:57 63° E
Cosmos 1763 Rocket 3.7 19:46:30 10° SSW 19:51:47 74° WNW 19:57:04 10° N
Cosmos 44 Rocket 3.3 19:49:25 10° SSW 19:54:32 90° SW 19:57:11 29° NNE
Cosmos 540 Rocket 3.7 19:53:16 10° S 19:57:56 45° ESE 19:57:56 45° ESE
Lacrosse 5 rocket 3.2 19:55:53 10° N 19:57:08 18° N 19:57:08 18° N
Centaur AC-72 4.3 19:55:47 10° SW 20:01:53 42° SSE 20:07:52 28° ESE
USA 215 4.5 20:00:54 10° SSE 20:06:57 40° SW 20:12:59 10° WNW
Cosmos 1814 Rocket 3.8 20:02:41 10° S 20:07:49 79° ESE 20:08:45 60° NNE
CZ-2C R/B 4.3 20:05:16 12° N 20:09:27 57° WNW 20:14:06 10° SSW
ADEOS Rocket 3.1 20:04:07 10° NNE 20:11:06 82° ESE 20:17:22 10° S
CZ-4 R/B 3.8 20:08:08 10° SSW 20:11:24 24° WSW 20:14:43 10° NW
Cosmos 2369 Rocket 2.0 20:09:03 10° SSW 20:14:45 84° ESE 20:15:42 63° NNE
ARIANE 5 R/B 3.8 20:15:25 10° WSW 20:19:17 34° S 20:19:17 34° S
Cosmos 2123 Rocket 3.9 20:14:18 10° S 20:20:40 87° E 20:23:19 38° N
Skynet4D Del rocket 4.2 20:15:50 10° WSW 20:21:17 52° NNW 20:22:02 48° N
CZ-4C R/B 4.4 20:17:31 10° NW 20:25:07 39° WSW 20:32:36 10° S
Hubble Space Telescope 3.2 20:22:33 10° WSW 20:25:09 16° SSW 20:25:56 15° SSW
ATLAS 5 CENTAUR R/B 4.1 20:38:51 10° WNW 20:45:58 46° N 20:51:08 38° NE
Cosmos 1943 Rocket 3.5 20:41:06 10° SW 20:46:03 35° WNW 20:47:10 32° NW
H-2A R/B 4.2 20:48:40 10° W 20:49:50 15° W 20:49:50 15° W
FALCON 9 R/B 4.2 20:50:58 10° NW 21:25:48 69° SW 21:27:32 63° S
